Location: ?????
(55.8833°N, 37.6500°E)
Time: 04:35:48
(UTC+00:00)

STARLINK-1056 - Pass Details

Date: 27 February 2020
Orbit: 548 x 551 km, 53.0° (Epoch: 29 March)

Event Time Altitude Azimuth Distance (km) Brightness Sun altitude
Rises 17:27:08 0° 238° (WSW) 2,713 7.7 -21.4°
Reaches altitude 10° 17:29:26 10° 232° (SW) 1,821 6.7 -21.7°
Enters shadow 17:32:34 38° 191° (SSW) 856 4.5 -22.2°
